C/2018 KJ3 ( Lemmon )

Japanese version
Home page
Updated on May 20, 2019

---------------------------------------------------------------------

* Profile

Discovery Date May 17, 2018
Magnitude 19.9 mag
Discoverer H. Groeller and G. J. Leonard (Mount Lemmon Survey)

* Pictures

* Orbital Elements

Epoch 2019 Aug. 25.0 TT = JDT 2458720.5
T 2019 Sept.  9.48485 TT                                MPCW
q   3.6286821            (2000.0)            P               Q
z  +0.0011899      Peri.  217.62010     -0.42211033     -0.59328880
 +/-0.0000019      Node    91.59383     -0.57127394     +0.76116875
e   0.9956823      Incl.  136.70871     -0.70389556     -0.26197429
From 182 observations 2018 May 17-2019 Mar. 31, mean residual 0".4.

* Finding Charts

* Magnitudes Graph

        m1 = 8.5 + 5 log d + 10.0 log r

---------------------------------------------------------------------

The orbital elements are published on M.P.E.C. 2019-J142.
The charts are made with StellaNavigator Ver.10 (AstroArts).
The magnitudes graphs are made with Comet for Windows.

---------------------------------------------------------------------

Copyright(C) Seiichi Yoshida (comet@aerith.net). All rights reserved.